TimePST,TemperatureF,Dew PointF,Humidity,Sea Level PressureIn,VisibilityMPH,Wind Direction,Wind SpeedMPH,Gust SpeedMPH,PrecipitationIn,Events,Conditions,WindDirDegrees,DateUTC
12:00 AM,39.2,37.4,93,29.94,10.0,Calm,Calm,-,N/A,,Overcast,0,2012-11-10 08:00:00
12:56 AM,39.0,37.9,96,29.96,10.0,Calm,Calm,-,N/A,,Overcast,0,2012-11-10 08:56:00
1:45 AM,39.2,37.4,93,29.97,10.0,Calm,Calm,-,N/A,,Overcast,0,2012-11-10 09:45:00
1:56 AM,39.0,37.9,96,29.97,10.0,Calm,Calm,-,N/A,,Mostly Cloudy,0,2012-11-10 09:56:00
2:44 AM,37.4,35.6,93,29.97,8.0,SW,3.5,-,N/A,,Overcast,220,2012-11-10 10:44:00
2:56 AM,37.0,36.0,96,29.98,10.0,WSW,3.5,-,N/A,,Mostly Cloudy,250,2012-11-10 10:56:00
3:12 AM,37.4,37.4,100,29.98,10.0,Calm,Calm,-,N/A,,Partly Cloudy,0,2012-11-10 11:12:00
3:37 AM,37.4,35.6,93,29.99,8.0,Calm,Calm,-,N/A,,Mostly Cloudy,0,2012-11-10 11:37:00
3:53 AM,35.6,35.6,100,29.99,1.8,Calm,Calm,-,N/A,,Overcast,0,2012-11-10 11:53:00
3:56 AM,36.0,36.0,100,29.99,1.0,Calm,Calm,-,N/A,,Overcast,0,2012-11-10 11:56:00
4:03 AM,35.6,35.6,100,29.99,0.5,Calm,Calm,-,N/A,Fog,Fog,0,2012-11-10 12:03:00
4:42 AM,35.6,35.6,100,30.00,0.2,Calm,Calm,-,N/A,Fog,Fog,0,2012-11-10 12:42:00
4:56 AM,36.0,36.0,100,30.01,0.2,Calm,Calm,-,N/A,Fog,Fog,0,2012-11-10 12:56:00
5:23 AM,35.6,35.6,100,30.02,0.5,SW,3.5,-,N/A,Fog,Fog,230,2012-11-10 13:23:00
5:56 AM,36.0,36.0,100,30.03,0.5,Calm,Calm,-,N/A,Fog,Fog,0,2012-11-10 13:56:00
6:36 AM,35.6,35.6,100,30.03,1.5,SE,3.5,-,N/A,,Overcast,130,2012-11-10 14:36:00
6:46 AM,35.6,35.6,100,30.04,3.0,SSE,3.5,-,N/A,,Overcast,160,2012-11-10 14:46:00
6:56 AM,36.0,36.0,100,30.05,1.0,South,3.5,-,N/A,,Overcast,190,2012-11-10 14:56:00
7:56 AM,36.0,36.0,100,30.07,1.5,SE,3.5,-,N/A,,Overcast,140,2012-11-10 15:56:00
8:56 AM,39.0,37.9,96,30.09,3.0,SW,3.5,-,N/A,,Overcast,220,2012-11-10 16:56:00
9:09 AM,39.2,37.4,93,30.09,3.0,WSW,4.6,-,N/A,,Overcast,240,2012-11-10 17:09:00
9:56 AM,41.0,37.9,89,30.09,6.0,SSE,4.6,-,N/A,,Overcast,150,2012-11-10 17:56:00
10:56 AM,43.0,37.0,80,30.12,6.0,SSW,5.8,-,N/A,,Overcast,200,2012-11-10 18:56:00
11:56 AM,44.1,37.0,76,30.12,10.0,SW,8.1,-,N/A,,Mostly Cloudy,220,2012-11-10 19:56:00
12:56 PM,45.0,37.0,74,30.13,10.0,SSW,9.2,-,N/A,,Mostly Cloudy,200,2012-11-10 20:56:00
1:56 PM,46.0,37.9,73,30.13,10.0,SSE,10.4,-,N/A,,Mostly Cloudy,160,2012-11-10 21:56:00
2:56 PM,45.0,36.0,71,30.14,10.0,SSW,8.1,-,N/A,,Mostly Cloudy,200,2012-11-10 22:56:00
3:23 PM,46.4,37.4,71,30.13,10.0,SSE,5.8,-,N/A,,Overcast,160,2012-11-10 23:23:00
3:56 PM,45.0,37.9,76,30.14,10.0,South,4.6,-,N/A,,Overcast,180,2012-11-10 23:56:00
4:56 PM,42.1,37.0,82,30.14,10.0,Calm,Calm,-,N/A,,Scattered Clouds,0,2012-11-11 00:56:00
5:56 PM,42.1,37.9,85,30.17,10.0,Calm,Calm,-,N/A,,Scattered Clouds,0,2012-11-11 01:56:00
6:56 PM,37.9,36.0,93,30.18,10.0,Calm,Calm,-,N/A,,Mostly Cloudy,0,2012-11-11 02:56:00
7:56 PM,39.0,37.0,93,30.19,10.0,Calm,Calm,-,N/A,,Mostly Cloudy,0,2012-11-11 03:56:00
8:56 PM,39.0,37.9,96,30.20,10.0,Calm,Calm,-,N/A,,Mostly Cloudy,0,2012-11-11 04:56:00
9:56 PM,37.0,36.0,96,30.21,10.0,SSE,5.8,-,N/A,,Partly Cloudy,160,2012-11-11 05:56:00
10:56 PM,37.0,35.1,93,30.22,10.0,SSE,5.8,-,N/A,,Partly Cloudy,160,2012-11-11 06:56:00
11:56 PM,37.9,36.0,93,30.22,10.0,Calm,Calm,-,N/A,,Overcast,0,2012-11-11 07:56:00